Time,TemperatureF,DewpointF,PressureIn,WindDirection,WindDirectionDegrees,WindSpeedMPH,WindSpeedGustMPH,Humidity,HourlyPrecipIn,Conditions,Clouds,dailyrainin,SoftwareType,DateUTC
2013-04-23 00:02:00,67.6,64.6,30.03,South,169,3.0,7.0,90,0.00,,,0.01,meteohub,2013-04-23 05:02:00,
2013-04-23 00:07:00,67.6,64.6,30.03,South,171,2.0,8.0,90,0.00,,,0.00,meteohub,2013-04-23 05:07:00,
2013-04-23 00:12:00,67.8,64.8,30.03,SSE,168,2.0,8.0,90,0.00,,,0.00,meteohub,2013-04-23 05:12:00,
2013-04-23 00:17:00,67.8,64.8,30.03,South,173,1.0,8.0,90,0.00,,,0.00,meteohub,2013-04-23 05:17:00,
2013-04-23 00:22:00,67.8,64.8,30.03,South,184,6.0,7.0,90,0.00,,,0.00,meteohub,2013-04-23 05:22:00,
2013-04-23 00:27:00,68.0,64.9,30.03,South,191,4.0,8.0,90,0.00,,,0.00,meteohub,2013-04-23 05:27:00,
2013-04-23 00:32:00,68.0,64.9,30.03,South,175,5.0,8.0,90,0.00,,,0.00,meteohub,2013-04-23 05:32:00,
2013-04-23 00:37:00,68.2,65.1,30.03,SSE,159,6.0,9.0,90,0.00,,,0.00,meteohub,2013-04-23 05:37:00,
2013-04-23 00:42:00,68.2,64.8,30.03,South,190,8.0,9.0,89,0.00,,,0.00,meteohub,2013-04-23 05:42:00,
2013-04-23 00:47:00,68.2,64.8,30.03,SSE,161,4.0,9.0,89,0.00,,,0.00,meteohub,2013-04-23 05:47:00,
2013-04-23 00:52:00,68.2,64.8,30.03,SSE,148,6.0,9.0,89,0.00,,,0.00,meteohub,2013-04-23 05:52:00,
2013-04-23 00:57:00,68.2,64.8,30.03,South,186,5.0,9.0,89,0.00,,,0.00,meteohub,2013-04-23 05:57:00,
2013-04-23 01:02:00,68.2,64.8,30.03,South,175,3.0,9.0,89,0.00,,,0.00,meteohub,2013-04-23 06:02:00,
2013-04-23 01:07:00,68.2,64.8,30.03,South,178,3.0,12.0,89,0.00,,,0.00,meteohub,2013-04-23 06:07:00,
2013-04-23 01:12:00,68.2,64.8,30.03,South,173,3.0,12.0,89,0.00,,,0.00,meteohub,2013-04-23 06:12:00,
2013-04-23 01:17:00,68.2,64.8,30.02,South,180,2.0,12.0,89,0.00,,,0.00,meteohub,2013-04-23 06:17:00,
2013-04-23 01:22:00,68.4,64.9,30.03,SE,143,8.0,11.0,89,0.00,,,0.00,meteohub,2013-04-23 06:22:00,
2013-04-23 01:27:00,68.4,64.9,30.03,South,178,3.0,11.0,89,0.00,,,0.00,meteohub,2013-04-23 06:27:00,
2013-04-23 01:32:00,68.4,64.9,30.02,South,177,4.0,11.0,89,0.00,,,0.00,meteohub,2013-04-23 06:32:00,
2013-04-23 01:37:00,68.4,64.9,30.02,SSE,162,4.0,11.0,89,0.00,,,0.00,meteohub,2013-04-23 06:37:00,
2013-04-23 01:42:00,68.4,64.9,30.02,South,176,4.0,11.0,89,0.00,,,0.00,meteohub,2013-04-23 06:42:00,
2013-04-23 01:47:00,68.4,64.9,30.02,South,169,1.0,11.0,89,0.00,,,0.00,meteohub,2013-04-23 06:47:00,
2013-04-23 01:52:00,68.4,64.9,30.02,SSE,150,7.0,9.0,89,0.00,,,0.00,meteohub,2013-04-23 06:52:00,
2013-04-23 01:57:00,68.4,64.9,30.02,SSW,199,3.0,7.0,89,0.00,,,0.00,meteohub,2013-04-23 06:57:00,
2013-04-23 02:02:00,68.4,64.9,30.02,South,184,4.0,10.0,89,0.00,,,0.00,meteohub,2013-04-23 07:02:00,
2013-04-23 02:07:00,68.4,64.9,30.02,South,178,3.0,10.0,89,0.00,,,0.00,meteohub,2013-04-23 07:07:00,
2013-04-23 02:12:00,68.4,64.9,30.02,South,175,2.0,10.0,89,0.00,,,0.00,meteohub,2013-04-23 07:12:00,
2013-04-23 02:17:00,68.4,64.9,30.02,South,182,2.0,11.0,89,0.00,,,0.00,meteohub,2013-04-23 07:17:00,
2013-04-23 02:22:00,68.2,64.8,30.01,SW,215,4.0,11.0,89,0.00,,,0.00,meteohub,2013-04-23 07:22:00,
2013-04-23 02:27:00,68.2,64.8,30.01,SE,138,6.0,8.0,89,0.00,,,0.00,meteohub,2013-04-23 07:27:00,
2013-04-23 02:32:00,68.2,64.8,30.01,SSE,167,4.0,9.0,89,0.00,,,0.00,meteohub,2013-04-23 07:32:00,
2013-04-23 02:37:00,68.2,64.8,30.01,South,171,5.0,11.0,89,0.00,,,0.00,meteohub,2013-04-23 07:37:00,
2013-04-23 02:42:00,68.4,64.9,30.01,SSE,150,4.0,11.0,89,0.00,,,0.00,meteohub,2013-04-23 07:42:00,
2013-04-23 02:47:00,68.4,64.9,30.01,SSE,152,7.0,10.0,89,0.00,,,0.00,meteohub,2013-04-23 07:47:00,
2013-04-23 02:52:00,68.4,64.9,30.01,South,175,3.0,11.0,89,0.00,,,0.00,meteohub,2013-04-23 07:52:00,
2013-04-23 02:57:00,68.4,64.6,30.01,South,190,5.0,13.0,88,0.00,,,0.00,meteohub,2013-04-23 07:57:00,
2013-04-23 03:02:00,68.4,64.6,30.01,SSW,194,2.0,13.0,88,0.00,,,0.00,meteohub,2013-04-23 08:02:00,
2013-04-23 03:07:00,68.4,64.6,30.01,SSE,161,5.0,13.0,88,0.00,,,0.00,meteohub,2013-04-23 08:07:00,
2013-04-23 03:12:00,68.4,64.9,30.00,SE,132,6.0,11.0,89,0.00,,,0.00,meteohub,2013-04-23 08:12:00,
2013-04-23 03:17:00,68.2,64.4,30.00,SSE,156,6.0,11.0,88,0.00,,,0.00,meteohub,2013-04-23 08:17:00,
2013-04-23 03:22:00,68.2,64.8,30.00,South,188,4.0,11.0,89,0.00,,,0.00,meteohub,2013-04-23 08:22:00,
2013-04-23 03:27:00,68.2,64.8,30.00,SSE,161,2.0,11.0,89,0.00,,,0.00,meteohub,2013-04-23 08:27:00,
2013-04-23 03:32:00,68.2,64.8,30.00,SE,140,7.0,8.0,89,0.00,,,0.00,meteohub,2013-04-23 08:32:00,
2013-04-23 03:37:00,68.0,64.6,30.00,SSE,148,5.0,11.0,89,0.00,,,0.00,meteohub,2013-04-23 08:37:00,
2013-04-23 03:42:00,67.8,64.4,30.00,South,189,6.0,11.0,89,0.00,,,0.00,meteohub,2013-04-23 08:42:00,
2013-04-23 03:47:00,67.8,64.4,30.00,South,176,2.0,16.0,89,0.00,,,0.00,meteohub,2013-04-23 08:47:00,
2013-04-23 03:52:00,67.6,64.2,30.00,SE,136,8.0,16.0,89,0.00,,,0.00,meteohub,2013-04-23 08:52:00,
2013-04-23 03:57:00,67.6,64.2,30.00,ESE,121,7.0,16.0,89,0.00,,,0.00,meteohub,2013-04-23 08:57:00,
2013-04-23 04:02:00,67.5,64.0,30.00,SSE,152,3.0,10.0,89,0.00,,,0.00,meteohub,2013-04-23 09:02:00,
2013-04-23 04:07:00,67.5,64.0,30.00,ESE,113,3.0,10.0,89,0.00,,,0.00,meteohub,2013-04-23 09:07:00,
2013-04-23 04:12:00,67.5,64.0,30.00,South,180,1.0,12.0,89,0.00,,,0.00,meteohub,2013-04-23 09:12:00,
2013-04-23 04:17:00,67.3,64.2,30.00,SSE,158,2.0,12.0,90,0.00,,,0.00,meteohub,2013-04-23 09:17:00,
2013-04-23 04:22:00,67.3,64.2,30.00,SE,139,4.0,12.0,90,0.00,,,0.00,meteohub,2013-04-23 09:22:00,
2013-04-23 04:27:00,67.3,64.2,30.00,SSE,165,5.0,8.0,90,0.00,,,0.00,meteohub,2013-04-23 09:27:00,
2013-04-23 04:32:00,67.3,64.2,30.00,SSE,163,2.0,8.0,90,0.00,,,0.00,meteohub,2013-04-23 09:32:00,
2013-04-23 04:37:00,67.3,64.2,30.00,SE,140,0.0,6.0,90,0.00,,,0.00,meteohub,2013-04-23 09:37:00,
2013-04-23 04:42:00,67.5,64.4,30.00,SSE,156,7.0,7.0,90,0.00,,,0.00,meteohub,2013-04-23 09:42:00,
2013-04-23 04:47:00,67.5,64.0,30.01,SE,143,5.0,10.0,89,0.00,,,0.00,meteohub,2013-04-23 09:47:00,
2013-04-23 04:52:00,67.5,64.0,30.01,SSW,200,4.0,10.0,89,0.00,,,0.00,meteohub,2013-04-23 09:52:00,
2013-04-23 04:57:00,67.5,64.0,30.01,SE,130,2.0,11.0,89,0.00,,,0.00,meteohub,2013-04-23 09:57:00,
2013-04-23 05:02:00,67.5,64.0,30.01,South,187,2.0,11.0,89,0.00,,,0.00,meteohub,2013-04-23 10:02:00,
2013-04-23 05:07:00,67.5,64.0,30.01,South,185,3.0,11.0,89,0.00,,,0.00,meteohub,2013-04-23 10:07:00,
2013-04-23 05:12:00,67.5,64.0,30.01,SE,146,4.0,11.0,89,0.00,,,0.00,meteohub,2013-04-23 10:12:00,
2013-04-23 05:17:00,67.5,64.0,30.01,SSE,161,4.0,10.0,89,0.00,,,0.00,meteohub,2013-04-23 10:17:00,
2013-04-23 05:22:00,67.5,64.0,30.00,SSE,167,3.0,9.0,89,0.00,,,0.00,meteohub,2013-04-23 10:22:00,
2013-04-23 05:27:00,67.5,64.0,30.00,SSW,194,6.0,9.0,89,0.00,,,0.00,meteohub,2013-04-23 10:27:00,
2013-04-23 05:32:00,67.5,64.0,30.00,SSE,163,3.0,9.0,89,0.00,,,0.00,meteohub,2013-04-23 10:32:00,
2013-04-23 05:37:00,67.5,64.0,30.01,South,173,6.0,12.0,89,0.00,,,0.00,meteohub,2013-04-23 10:37:00,
2013-04-23 05:42:00,67.5,64.0,30.01,South,189,2.0,12.0,89,0.00,,,0.00,meteohub,2013-04-23 10:42:00,
2013-04-23 05:47:00,67.5,64.0,30.01,South,173,6.0,12.0,89,0.00,,,0.00,meteohub,2013-04-23 10:47:00,
2013-04-23 05:52:00,67.6,64.2,30.01,SE,142,3.0,12.0,89,0.00,,,0.00,meteohub,2013-04-23 10:52:00,
2013-04-23 05:57:00,67.6,64.0,30.01,SE,132,5.0,12.0,88,0.00,,,0.00,meteohub,2013-04-23 10:57:00,
2013-04-23 06:02:00,67.6,64.0,30.01,SSE,154,6.0,10.0,88,0.00,,,0.00,meteohub,2013-04-23 11:02:00,
2013-04-23 06:07:00,67.6,64.0,30.01,South,174,9.0,11.0,88,0.00,,,0.00,meteohub,2013-04-23 11:07:00,
2013-04-23 06:12:00,67.6,64.0,30.01,SSE,160,8.0,12.0,88,0.00,,,0.00,meteohub,2013-04-23 11:12:00,
2013-04-23 06:17:00,67.6,64.0,30.01,South,171,5.0,12.0,88,0.00,,,0.00,meteohub,2013-04-23 11:17:00,
2013-04-23 06:22:00,67.8,64.2,30.01,South,176,4.0,12.0,88,0.00,,,0.00,meteohub,2013-04-23 11:22:00,
2013-04-23 06:27:00,67.8,64.2,30.01,South,190,3.0,11.0,88,0.00,,,0.00,meteohub,2013-04-23 11:27:00,
2013-04-23 06:32:00,67.8,63.9,30.02,SSE,165,2.0,9.0,87,0.00,,,0.00,meteohub,2013-04-23 11:32:00,
2013-04-23 06:37:00,67.8,63.9,30.02,SSE,157,3.0,9.0,87,0.00,,,0.00,meteohub,2013-04-23 11:37:00,
2013-04-23 06:42:00,68.0,64.4,30.02,SSE,168,3.0,9.0,88,0.00,,,0.00,meteohub,2013-04-23 11:42:00,
2013-04-23 06:47:00,68.0,64.4,30.02,SSE,154,1.0,9.0,88,0.00,,,0.00,meteohub,2013-04-23 11:47:00,
2013-04-23 06:52:00,68.2,64.4,30.02,South,172,3.0,8.0,88,0.00,,,0.00,meteohub,2013-04-23 11:52:00,
2013-04-23 06:57:00,68.2,64.2,30.02,South,189,3.0,11.0,87,0.00,,,0.00,meteohub,2013-04-23 11:57:00,
2013-04-23 07:02:00,68.4,64.4,30.02,SSE,159,5.0,11.0,87,0.00,,,0.00,meteohub,2013-04-23 12:02:00,
2013-04-23 07:07:00,68.4,64.4,30.02,SSW,198,5.0,11.0,87,0.00,,,0.00,meteohub,2013-04-23 12:07:00,
2013-04-23 07:12:00,68.4,64.4,30.02,SE,138,4.0,9.0,87,0.00,,,0.00,meteohub,2013-04-23 12:12:00,
2013-04-23 07:17:00,68.4,64.4,30.02,South,177,2.0,9.0,87,0.00,,,0.00,meteohub,2013-04-23 12:17:00,
2013-04-23 07:22:00,68.5,64.6,30.03,South,178,3.0,8.0,87,0.00,,,0.00,meteohub,2013-04-23 12:22:00,
2013-04-23 07:27:00,68.5,64.6,30.03,SE,131,6.0,8.0,87,0.00,,,0.00,meteohub,2013-04-23 12:27:00,
2013-04-23 07:32:00,68.4,64.4,30.03,South,176,3.0,11.0,87,0.00,,,0.00,meteohub,2013-04-23 12:32:00,
2013-04-23 07:37:00,68.4,64.4,30.03,SE,144,4.0,11.0,87,0.00,,,0.00,meteohub,2013-04-23 12:37:00,
2013-04-23 07:42:00,68.5,64.8,30.03,SE,145,4.0,11.0,88,0.00,,,0.00,meteohub,2013-04-23 12:42:00,
2013-04-23 07:47:00,68.5,64.8,30.03,SSW,194,8.0,11.0,88,0.00,,,0.00,meteohub,2013-04-23 12:47:00,
2013-04-23 07:52:00,68.5,64.8,30.03,SE,128,4.0,12.0,88,0.00,,,0.00,meteohub,2013-04-23 12:52:00,
2013-04-23 07:57:00,68.7,64.9,30.03,SE,138,10.0,12.0,88,0.00,,,0.00,meteohub,2013-04-23 12:57:00,
2013-04-23 08:02:00,68.9,64.9,30.04,South,169,5.0,12.0,87,0.00,,,0.00,meteohub,2013-04-23 13:02:00,
2013-04-23 08:07:00,69.1,65.1,30.03,SSE,168,6.0,11.0,87,0.00,,,0.00,meteohub,2013-04-23 13:07:00,
2013-04-23 08:12:00,69.3,65.3,30.03,South,189,8.0,11.0,87,0.00,,,0.00,meteohub,2013-04-23 13:12:00,
2013-04-23 08:17:00,69.4,65.5,30.03,SSE,155,7.0,11.0,87,0.00,,,0.00,meteohub,2013-04-23 13:17:00,
2013-04-23 08:22:00,69.6,65.3,30.03,South,188,5.0,12.0,86,0.00,,,0.00,meteohub,2013-04-23 13:22:00,
2013-04-23 08:32:00,70.0,65.7,30.04,South,184,3.0,11.0,86,0.00,,,0.00,meteohub,2013-04-23 13:32:00,
2013-04-23 08:42:00,70.2,65.5,30.04,SE,128,11.0,13.0,85,0.00,,,0.00,meteohub,2013-04-23 13:42:00,
2013-04-23 08:47:00,70.2,65.5,30.04,South,181,5.0,13.0,85,0.00,,,0.00,meteohub,2013-04-23 13:47:00,
2013-04-23 08:52:00,70.3,65.7,30.04,South,190,7.0,11.0,85,0.00,,,0.00,meteohub,2013-04-23 13:52:00,
2013-04-23 08:57:00,70.3,65.7,30.04,SSE,163,5.0,11.0,85,0.00,,,0.00,meteohub,2013-04-23 13:57:00,
2013-04-23 09:02:00,70.5,65.5,30.04,SE,133,4.0,11.0,84,0.00,,,0.00,meteohub,2013-04-23 14:02:00,
2013-04-23 09:07:00,70.5,65.5,30.04,SSW,202,7.0,10.0,84,0.00,,,0.00,meteohub,2013-04-23 14:07:00,
2013-04-23 09:12:00,70.5,65.5,30.05,SSE,155,7.0,17.0,84,0.00,,,0.00,meteohub,2013-04-23 14:12:00,
2013-04-23 09:17:00,70.7,65.3,30.04,SSW,200,10.0,17.0,83,0.00,,,0.00,meteohub,2013-04-23 14:17:00,
2013-04-23 09:22:00,70.9,65.8,30.05,SSE,152,3.0,17.0,84,0.00,,,0.00,meteohub,2013-04-23 14:22:00,
2013-04-23 09:27:00,70.9,65.5,30.05,SE,129,8.0,15.0,83,0.00,,,0.00,meteohub,2013-04-23 14:27:00,
2013-04-23 09:32:00,71.2,65.8,30.05,South,187,6.0,15.0,83,0.00,,,0.00,meteohub,2013-04-23 14:32:00,
2013-04-23 09:37:00,71.4,66.0,30.05,SE,146,6.0,15.0,83,0.00,,,0.00,meteohub,2013-04-23 14:37:00,
2013-04-23 09:42:00,71.6,66.2,30.05,SW,219,8.0,14.0,83,0.00,,,0.00,meteohub,2013-04-23 14:42:00,
2013-04-23 09:47:00,72.0,66.6,30.05,South,175,13.0,14.0,83,0.00,,,0.00,meteohub,2013-04-23 14:47:00,
2013-04-23 09:52:00,72.1,66.4,30.05,South,184,6.0,13.0,82,0.00,,,0.00,meteohub,2013-04-23 14:52:00,
2013-04-23 09:57:00,72.3,66.6,30.05,South,171,4.0,14.0,82,0.00,,,0.00,meteohub,2013-04-23 14:57:00,
2013-04-23 10:02:00,72.5,66.4,30.05,SSE,157,5.0,14.0,81,0.00,,,0.00,meteohub,2013-04-23 15:02:00,
2013-04-23 10:07:00,72.9,66.7,30.05,SE,145,6.0,14.0,81,0.00,,,0.00,meteohub,2013-04-23 15:07:00,
2013-04-23 10:12:00,72.9,66.7,30.05,SSE,149,9.0,13.0,81,0.00,,,0.00,meteohub,2013-04-23 15:12:00,
2013-04-23 10:17:00,73.6,67.5,30.05,South,183,7.0,13.0,81,0.00,,,0.00,meteohub,2013-04-23 15:17:00,
2013-04-23 10:22:00,73.9,67.1,30.05,SE,134,7.0,14.0,79,0.00,,,0.00,meteohub,2013-04-23 15:22:00,
2013-04-23 10:27:00,74.5,67.5,30.05,South,173,7.0,17.0,79,0.00,,,0.00,meteohub,2013-04-23 15:27:00,
2013-04-23 10:32:00,74.7,67.6,30.05,SSE,156,7.0,17.0,79,0.00,,,0.00,meteohub,2013-04-23 15:32:00,
2013-04-23 10:37:00,74.8,67.5,30.05,South,170,4.0,17.0,78,0.00,,,0.00,meteohub,2013-04-23 15:37:00,
2013-04-23 10:42:00,74.8,67.5,30.05,West,261,6.0,16.0,78,0.00,,,0.00,meteohub,2013-04-23 15:42:00,
2013-04-23 10:47:00,74.7,67.3,30.05,SSE,167,5.0,16.0,78,0.00,,,0.00,meteohub,2013-04-23 15:47:00,
2013-04-23 10:52:00,74.8,67.8,30.05,SSE,163,4.0,13.0,79,0.00,,,0.00,meteohub,2013-04-23 15:52:00,
2013-04-23 10:57:00,75.6,68.2,30.05,South,191,9.0,11.0,78,0.00,,,0.00,meteohub,2013-04-23 15:57:00,
2013-04-23 11:02:00,76.3,68.2,30.05,SSW,194,4.0,15.0,76,0.00,,,0.00,meteohub,2013-04-23 16:02:00,
2013-04-23 11:07:00,77.0,68.0,30.05,South,188,7.0,15.0,74,0.00,,,0.00,meteohub,2013-04-23 16:07:00,
2013-04-23 11:12:00,76.8,68.4,30.05,South,172,2.0,13.0,75,0.00,,,0.00,meteohub,2013-04-23 16:12:00,
2013-04-23 11:17:00,76.5,67.6,30.04,SSE,155,6.0,13.0,74,0.00,,,0.00,meteohub,2013-04-23 16:17:00,
2013-04-23 11:22:00,76.6,68.2,30.04,SSW,192,2.0,13.0,75,0.00,,,0.00,meteohub,2013-04-23 16:22:00,
2013-04-23 11:27:00,77.0,68.5,30.04,South,186,8.0,13.0,75,0.00,,,0.00,meteohub,2013-04-23 16:27:00,
2013-04-23 11:32:00,77.2,68.2,30.04,South,182,6.0,12.0,74,0.00,,,0.00,meteohub,2013-04-23 16:32:00,
2013-04-23 11:37:00,78.1,68.7,30.04,South,174,5.0,12.0,73,0.00,,,0.00,meteohub,2013-04-23 16:37:00,
2013-04-23 11:42:00,78.4,68.7,30.04,South,187,5.0,12.0,72,0.00,,,0.00,meteohub,2013-04-23 16:42:00,
2013-04-23 11:47:00,79.2,69.3,30.04,South,177,6.0,16.0,72,0.00,,,0.00,meteohub,2013-04-23 16:47:00,
2013-04-23 11:52:00,79.2,68.9,30.04,SSE,157,6.0,16.0,71,0.00,,,0.00,meteohub,2013-04-23 16:52:00,
2013-04-23 11:57:00,79.5,69.3,30.03,SSW,195,7.0,16.0,71,0.00,,,0.00,meteohub,2013-04-23 16:57:00,
2013-04-23 12:07:00,79.7,68.5,30.03,South,190,8.0,16.0,69,0.00,,,0.00,meteohub,2013-04-23 17:07:00,
2013-04-23 12:12:00,79.3,68.4,30.03,SSW,200,12.0,16.0,69,0.00,,,0.00,meteohub,2013-04-23 17:12:00,
2013-04-23 12:17:00,80.1,69.8,30.02,SSW,208,8.0,16.0,71,0.00,,,0.00,meteohub,2013-04-23 17:17:00,
2013-04-23 12:22:00,80.6,70.0,30.02,South,190,5.0,14.0,70,0.00,,,0.00,meteohub,2013-04-23 17:22:00,
2013-04-23 12:27:00,80.2,68.7,30.02,South,179,12.0,14.0,68,0.00,,,0.00,meteohub,2013-04-23 17:27:00,
2013-04-23 12:32:00,80.2,70.0,30.02,South,183,3.0,13.0,71,0.00,,,0.00,meteohub,2013-04-23 17:32:00,
2013-04-23 12:37:00,80.4,68.9,30.01,SSW,205,10.0,14.0,68,0.00,,,0.00,meteohub,2013-04-23 17:37:00,
2013-04-23 12:42:00,80.2,68.7,30.01,WSW,250,2.0,15.0,68,0.00,,,0.00,meteohub,2013-04-23 17:42:00,
2013-04-23 12:47:00,81.1,68.7,30.01,West,266,4.0,15.0,66,0.00,,,0.00,meteohub,2013-04-23 17:47:00,
2013-04-23 12:52:00,81.0,69.4,30.01,South,182,4.0,15.0,68,0.00,,,0.00,meteohub,2013-04-23 17:52:00,
2013-04-23 12:57:00,81.9,68.9,30.00,SW,223,4.0,14.0,65,0.00,,,0.00,meteohub,2013-04-23 17:57:00,
2013-04-23 13:02:00,83.1,69.6,30.00,SW,220,9.0,14.0,64,0.00,,,0.00,meteohub,2013-04-23 18:02:00,
2013-04-23 14:07:00,84.0,67.1,29.99,SW,234,4.0,14.0,57,0.00,,,0.00,meteohub,2013-04-23 19:07:00,
2013-04-23 14:57:00,85.1,67.1,29.97,SE,144,7.0,14.0,55,0.00,,,0.00,meteohub,2013-04-23 19:57:00,
2013-04-23 15:02:00,84.9,68.0,29.97,South,171,8.0,16.0,57,0.00,,,0.00,meteohub,2013-04-23 20:02:00,
2013-04-23 15:07:00,85.1,67.1,29.97,SSW,211,6.0,16.0,55,0.00,,,0.00,meteohub,2013-04-23 20:07:00,
2013-04-23 15:12:00,84.6,67.1,29.97,SSW,213,13.0,15.0,56,0.00,,,0.00,meteohub,2013-04-23 20:12:00,
2013-04-23 15:17:00,84.0,67.6,29.96,SSW,211,7.0,13.0,58,0.00,,,0.00,meteohub,2013-04-23 20:17:00,
2013-04-23 15:22:00,84.6,68.7,29.96,SW,224,2.0,13.0,59,0.00,,,0.00,meteohub,2013-04-23 20:22:00,
2013-04-23 15:27:00,84.9,68.5,29.96,SSE,167,6.0,13.0,58,0.00,,,0.00,meteohub,2013-04-23 20:27:00,
2013-04-23 15:32:00,84.0,68.2,29.96,SSW,194,8.0,12.0,59,0.00,,,0.00,meteohub,2013-04-23 20:32:00,
2013-04-23 15:37:00,83.7,68.4,29.96,SW,226,12.0,12.0,60,0.00,,,0.00,meteohub,2013-04-23 20:37:00,
2013-04-23 15:42:00,83.5,67.1,29.96,SSW,196,6.0,13.0,58,0.00,,,0.00,meteohub,2013-04-23 20:42:00,
2013-04-23 15:47:00,83.7,68.4,29.95,South,178,6.0,13.0,60,0.00,,,0.00,meteohub,2013-04-23 20:47:00,
2013-04-23 15:52:00,83.8,68.0,29.96,South,178,8.0,13.0,59,0.00,,,0.00,meteohub,2013-04-23 20:52:00,
2013-04-23 15:57:00,84.0,68.7,29.95,SSW,202,6.0,14.0,60,0.00,,,0.00,meteohub,2013-04-23 20:57:00,
2013-04-23 16:02:00,84.0,67.6,29.95,SW,223,4.0,14.0,58,0.00,,,0.00,meteohub,2013-04-23 21:02:00,
2013-04-23 16:07:00,84.0,68.7,29.95,South,182,6.0,17.0,60,0.00,,,0.00,meteohub,2013-04-23 21:07:00,
2013-04-23 16:12:00,84.6,69.1,29.95,SSW,210,7.0,17.0,60,0.00,,,0.00,meteohub,2013-04-23 21:12:00,
2013-04-23 16:17:00,84.4,68.5,29.95,SSE,151,7.0,17.0,59,0.00,,,0.00,meteohub,2013-04-23 21:17:00,
2013-04-23 16:22:00,84.4,69.4,29.95,SSE,153,7.0,14.0,61,0.00,,,0.00,meteohub,2013-04-23 21:22:00,
2013-04-23 16:27:00,83.7,68.4,29.95,South,175,3.0,15.0,60,0.00,,,0.00,meteohub,2013-04-23 21:27:00,
2013-04-23 16:32:00,82.9,68.2,29.94,South,178,4.0,15.0,61,0.00,,,0.00,meteohub,2013-04-23 21:32:00,
2013-04-23 16:37:00,83.7,68.4,29.94,SSE,161,8.0,15.0,60,0.00,,,0.00,meteohub,2013-04-23 21:37:00,
2013-04-23 16:42:00,83.7,67.3,29.94,South,189,5.0,14.0,58,0.00,,,0.00,meteohub,2013-04-23 21:42:00,
2013-04-23 16:47:00,82.8,67.5,29.94,South,185,6.0,16.0,60,0.00,,,0.00,meteohub,2013-04-23 21:47:00,
2013-04-23 16:52:00,82.4,66.6,29.94,South,169,6.0,16.0,59,0.00,,,0.00,meteohub,2013-04-23 21:52:00,
2013-04-23 16:57:00,81.9,66.6,29.94,South,182,6.0,14.0,60,0.00,,,0.00,meteohub,2013-04-23 21:57:00,
2013-04-23 17:02:00,82.2,66.0,29.94,SSW,202,5.0,14.0,58,0.00,,,0.00,meteohub,2013-04-23 22:02:00,
2013-04-23 17:07:00,82.8,68.0,29.94,SSE,164,6.0,14.0,61,0.00,,,0.00,meteohub,2013-04-23 22:07:00,
2013-04-23 17:12:00,82.9,67.6,29.94,SSE,167,9.0,12.0,60,0.00,,,0.00,meteohub,2013-04-23 22:12:00,
2013-04-23 17:17:00,82.0,67.3,29.94,West,269,4.0,11.0,61,0.00,,,0.00,meteohub,2013-04-23 22:17:00,
2013-04-23 17:22:00,81.5,67.3,29.94,South,184,4.0,11.0,62,0.00,,,0.00,meteohub,2013-04-23 22:22:00,
2013-04-23 17:27:00,81.0,67.1,29.94,SSW,196,2.0,11.0,63,0.00,,,0.00,meteohub,2013-04-23 22:27:00,
2013-04-23 17:32:00,81.0,68.0,29.94,SW,225,6.0,10.0,65,0.00,,,0.00,meteohub,2013-04-23 22:32:00,
2013-04-23 17:37:00,81.1,68.7,29.94,SSW,210,4.0,10.0,66,0.00,,,0.00,meteohub,2013-04-23 22:37:00,
2013-04-23 17:42:00,81.7,69.3,29.94,South,183,4.0,11.0,66,0.00,,,0.00,meteohub,2013-04-23 22:42:00,
2013-04-23 17:47:00,81.7,68.7,29.94,South,181,6.0,11.0,65,0.00,,,0.00,meteohub,2013-04-23 22:47:00,
2013-04-23 17:52:00,81.5,68.5,29.94,SSW,193,7.0,11.0,65,0.00,,,0.00,meteohub,2013-04-23 22:52:00,
2013-04-23 17:57:00,81.1,68.7,29.94,South,180,6.0,15.0,66,0.00,,,0.00,meteohub,2013-04-23 22:57:00,
2013-04-23 18:02:00,80.8,68.4,29.94,SW,214,9.0,15.0,66,0.00,,,0.00,meteohub,2013-04-23 23:02:00,
2013-04-23 18:07:00,80.2,68.4,29.94,South,184,9.0,15.0,67,0.00,,,0.00,meteohub,2013-04-23 23:07:00,
2013-04-23 18:12:00,80.1,68.2,29.94,South,191,5.0,12.0,67,0.00,,,0.00,meteohub,2013-04-23 23:12:00,
2013-04-23 18:17:00,80.1,68.5,29.94,South,186,3.0,11.0,68,0.00,,,0.00,meteohub,2013-04-23 23:17:00,
2013-04-23 18:22:00,80.1,67.6,29.94,South,184,7.0,11.0,66,0.00,,,0.00,meteohub,2013-04-23 23:22:00,
2013-04-23 18:27:00,79.9,68.0,29.94,SSW,211,3.0,13.0,67,0.00,,,0.00,meteohub,2013-04-23 23:27:00,
2013-04-23 18:32:00,79.5,68.0,29.94,South,184,5.0,13.0,68,0.00,,,0.00,meteohub,2013-04-23 23:32:00,
2013-04-23 18:37:00,79.3,68.4,29.94,SW,218,12.0,13.0,69,0.00,,,0.00,meteohub,2013-04-23 23:37:00,
2013-04-23 18:42:00,79.0,68.0,29.94,SSW,194,2.0,14.0,69,0.00,,,0.00,meteohub,2013-04-23 23:42:00,
2013-04-23 18:47:00,78.8,67.8,29.94,SSW,200,4.0,14.0,69,0.00,,,0.00,meteohub,2013-04-23 23:47:00,
2013-04-23 18:52:00,78.6,68.0,29.94,South,186,6.0,14.0,70,0.00,,,0.00,meteohub,2013-04-23 23:52:00,
2013-04-23 18:57:00,78.4,68.7,29.94,South,191,9.0,9.0,72,0.00,,,0.00,meteohub,2013-04-23 23:57:00,
2013-04-23 19:02:00,78.3,68.5,29.94,South,185,3.0,9.0,72,0.00,,,0.00,meteohub,2013-04-24 00:02:00,
2013-04-23 19:07:00,78.3,68.9,29.94,South,175,3.0,9.0,73,0.00,,,0.00,meteohub,2013-04-24 00:07:00,
2013-04-23 19:12:00,78.3,68.9,29.94,South,184,7.0,9.0,73,0.00,,,0.00,meteohub,2013-04-24 00:12:00,
2013-04-23 19:17:00,78.1,69.1,29.94,SSW,211,7.0,11.0,74,0.00,,,0.00,meteohub,2013-04-24 00:17:00,
2013-04-23 19:22:00,77.7,68.7,29.94,SSW,209,7.0,11.0,74,0.00,,,0.00,meteohub,2013-04-24 00:22:00,
2013-04-23 19:27:00,77.5,68.9,29.95,SSW,196,7.0,11.0,75,0.00,,,0.00,meteohub,2013-04-24 00:27:00,
2013-04-23 19:32:00,77.4,68.9,29.95,SSW,205,6.0,10.0,75,0.00,,,0.00,meteohub,2013-04-24 00:32:00,
2013-04-23 19:37:00,76.8,68.4,29.95,South,180,4.0,10.0,75,0.00,,,0.00,meteohub,2013-04-24 00:37:00,
2013-04-23 19:42:00,76.6,68.5,29.95,South,182,4.0,11.0,76,0.00,,,0.00,meteohub,2013-04-24 00:42:00,
2013-04-23 19:47:00,76.6,68.9,29.96,SW,224,4.0,11.0,77,0.00,,,0.00,meteohub,2013-04-24 00:47:00,
2013-04-23 19:52:00,76.5,68.7,29.96,South,180,3.0,7.0,77,0.00,,,0.00,meteohub,2013-04-24 00:52:00,
2013-04-23 19:57:00,76.3,68.9,29.96,South,182,4.0,7.0,78,0.00,,,0.00,meteohub,2013-04-24 00:57:00,
2013-04-23 20:02:00,76.1,68.7,29.96,SW,217,4.0,7.0,78,0.00,,,0.00,meteohub,2013-04-24 01:02:00,
2013-04-23 20:07:00,76.1,68.7,29.96,SW,236,4.0,7.0,78,0.00,,,0.00,meteohub,2013-04-24 01:07:00,
2013-04-23 20:12:00,75.9,68.9,29.97,SSW,200,6.0,6.0,79,0.00,,,0.00,meteohub,2013-04-24 01:12:00,
2013-04-23 20:17:00,75.9,68.9,29.97,SSW,196,5.0,7.0,79,0.00,,,0.00,meteohub,2013-04-24 01:17:00,
2013-04-23 20:22:00,75.7,68.7,29.97,South,180,1.0,7.0,79,0.00,,,0.00,meteohub,2013-04-24 01:22:00,
2013-04-23 20:27:00,75.7,68.7,29.98,SSW,198,2.0,7.0,79,0.00,,,0.00,meteohub,2013-04-24 01:27:00,
2013-04-23 20:32:00,75.7,69.1,29.98,SSW,192,2.0,6.0,80,0.00,,,0.00,meteohub,2013-04-24 01:32:00,
2013-04-23 20:37:00,75.6,68.9,29.98,SSW,192,2.0,7.0,80,0.00,,,0.00,meteohub,2013-04-24 01:37:00,
2013-04-23 20:42:00,75.6,68.9,29.98,SSW,195,0.0,7.0,80,0.00,,,0.00,meteohub,2013-04-24 01:42:00,
2013-04-23 20:47:00,75.6,68.9,29.98,South,186,1.0,7.0,80,0.00,,,0.00,meteohub,2013-04-24 01:47:00,
2013-04-23 20:52:00,75.4,68.7,29.98,South,182,6.0,7.0,80,0.00,,,0.00,meteohub,2013-04-24 01:52:00,
2013-04-23 20:57:00,75.2,68.9,29.99,South,175,1.0,7.0,81,0.00,,,0.00,meteohub,2013-04-24 01:57:00,
2013-04-23 21:02:00,75.0,68.7,29.99,South,177,2.0,7.0,81,0.00,,,0.00,meteohub,2013-04-24 02:02:00,
2013-04-23 21:07:00,74.8,68.5,29.99,SSW,192,4.0,7.0,81,0.00,,,0.00,meteohub,2013-04-24 02:07:00,
2013-04-23 21:12:00,74.8,68.9,29.99,SSW,207,4.0,7.0,82,0.00,,,0.00,meteohub,2013-04-24 02:12:00,
2013-04-23 21:17:00,74.7,68.7,29.99,South,187,1.0,7.0,82,0.00,,,0.00,meteohub,2013-04-24 02:17:00,
2013-04-23 21:22:00,74.5,68.5,29.99,SSW,202,7.0,10.0,82,0.00,,,0.00,meteohub,2013-04-24 02:22:00,
2013-04-23 21:27:00,74.3,68.4,29.99,SSW,192,9.0,14.0,82,0.00,,,0.00,meteohub,2013-04-24 02:27:00,
2013-04-23 21:37:00,74.1,68.2,30.00,South,176,6.0,14.0,82,0.00,,,0.00,meteohub,2013-04-24 02:37:00,
2013-04-23 21:42:00,73.9,68.4,30.00,SW,223,6.0,13.0,83,0.00,,,0.00,meteohub,2013-04-24 02:42:00,
2013-04-23 21:47:00,73.8,68.4,30.00,South,180,6.0,12.0,83,0.00,,,0.00,meteohub,2013-04-24 02:47:00,
2013-04-23 21:52:00,73.6,68.2,30.00,South,180,3.0,12.0,83,0.00,,,0.00,meteohub,2013-04-24 02:52:00,
2013-04-23 21:57:00,73.4,68.0,30.00,SSW,211,4.0,10.0,83,0.00,,,0.00,meteohub,2013-04-24 02:57:00,
2013-04-23 22:02:00,73.0,68.0,30.00,South,169,1.0,10.0,84,0.00,,,0.00,meteohub,2013-04-24 03:02:00,
2013-04-23 22:07:00,72.9,67.8,30.00,South,185,4.0,8.0,84,0.00,,,0.00,meteohub,2013-04-24 03:07:00,
2013-04-23 22:17:00,72.7,67.8,30.00,South,173,4.0,10.0,85,0.00,,,0.00,meteohub,2013-04-24 03:17:00,
2013-04-23 22:22:00,72.5,68.0,30.00,SSW,207,2.0,10.0,86,0.00,,,0.00,meteohub,2013-04-24 03:22:00,
2013-04-23 22:27:00,72.5,68.0,30.00,SSW,198,2.0,10.0,86,0.00,,,0.00,meteohub,2013-04-24 03:27:00,
2013-04-23 22:32:00,72.3,67.8,30.00,South,173,3.0,9.0,86,0.00,,,0.00,meteohub,2013-04-24 03:32:00,
2013-04-23 22:37:00,72.3,67.8,30.00,South,171,3.0,9.0,86,0.00,,,0.00,meteohub,2013-04-24 03:37:00,
2013-04-23 22:42:00,72.3,67.8,30.01,South,175,2.0,9.0,86,0.00,,,0.00,meteohub,2013-04-24 03:42:00,
2013-04-23 22:52:00,72.1,68.0,30.01,SSW,194,1.0,9.0,87,0.00,,,0.00,meteohub,2013-04-24 03:52:00,
2013-04-23 23:02:00,71.8,67.6,30.01,SW,215,0.0,6.0,87,0.00,,,0.00,meteohub,2013-04-24 04:02:00,
2013-04-23 23:07:00,71.8,67.6,30.01,SSW,195,5.0,6.0,87,0.00,,,0.00,meteohub,2013-04-24 04:07:00,
2013-04-23 23:12:00,71.8,68.0,30.01,SSE,167,3.0,6.0,88,0.00,,,0.00,meteohub,2013-04-24 04:12:00,
2013-04-23 23:17:00,71.8,68.0,30.01,SSW,202,4.0,8.0,88,0.00,,,0.00,meteohub,2013-04-24 04:17:00,
2013-04-23 23:22:00,72.0,68.2,30.01,South,175,4.0,8.0,88,0.00,,,0.00,meteohub,2013-04-24 04:22:00,
2013-04-23 23:27:00,72.0,68.2,30.01,SSW,193,2.0,9.0,88,0.00,,,0.00,meteohub,2013-04-24 04:27:00,
2013-04-23 23:32:00,72.0,68.2,30.01,South,184,5.0,9.0,88,0.00,,,0.00,meteohub,2013-04-24 04:32:00,
2013-04-23 23:37:00,72.0,68.2,30.01,South,180,3.0,9.0,88,0.00,,,0.00,meteohub,2013-04-24 04:37:00,
2013-04-23 23:42:00,72.0,68.2,30.01,South,182,3.0,9.0,88,0.00,,,0.00,meteohub,2013-04-24 04:42:00,
2013-04-23 23:47:00,72.0,68.2,30.01,South,178,2.0,9.0,88,0.00,,,0.00,meteohub,2013-04-24 04:47:00,
2013-04-23 23:52:00,72.0,68.2,30.01,South,180,3.0,9.0,88,0.00,,,0.00,meteohub,2013-04-24 04:52:00,
2013-04-23 23:57:00,72.0,68.2,30.01,South,179,4.0,9.0,88,0.00,,,0.00,meteohub,2013-04-24 04:57:00,